[[{"header":{"parameterUnit":"m.s-1","parameterCategory":1,"la1":30.2991,"la2":30.254,"lo1":-89.0895,"lo2":-89.0444,"dy":0.0017,"dx":0.0017,"nx":28,"ny":28,"refTime":"2025-11-14T03:00:00:Z","depth":0,"parameterNumber":2,"parameterNumberName":"U-component_of_WINDS"},"data":[0,0,0,0,0,0,0,0,0,0,0,0,0,0,0,0,0,0,0,0,0,0,0,0,0,0,0,0,0,0,0,0,0,0,0,0,0,0,0,0,0,0,0,0,0,0,0,0,0,0,0,0,0,0,0,0,0,0,2.0508,2.0509,0,2.0573,2.0574,2.0575,2.051,2.0507,2.0505,2.0502,2.0571,2.0575,2.0579,0,0,0,0,0,0,0,0,0,0,0,0,0,2.0329,2.0333,2.0508,2.0509,2.0509,2.0573,2.0574,2.0575,2.051,2.0507,2.0504,2.0501,2.0569,2.0574,2.0579,0,0,0,0,0,0,0,0,0,0,0,0,0,2.0402,2.0334,2.0508,2.0485,2.0483,2.0573,2.0574,2.0575,2.0511,2.0507,2.0503,2.05,2.0568,2.0574,2.058,2.0696,0,0,2.0599,2.0602,0,0,0,0,0,0,0,0,2.0398,2.0409,2.0487,2.0487,2.0485,2.0529,2.0536,2.0616,2.0512,2.0501,2.0502,2.0498,2.056,2.0567,2.0588,2.0699,2.0702,2.06,2.0604,2.0606,2.0608,0,0,0,0,0,0,0,2.0393,2.0405,2.0534,2.0489,2.0487,2.0472,2.0478,2.0551,2.0551,2.0501,2.0497,2.0505,2.0559,2.0582,2.0589,2.0703,2.06,2.0605,2.0609,2.0612,2.0916,2.092,0,0,0,0,0,0,2.039,2.0402,2.0532,2.0536,2.0431,2.0479,2.0485,2.0519,2.055,2.0551,2.0509,2.0502,2.0573,2.0582,2.0591,2.073,2.0606,2.0612,2.0616,2.0911,2.0917,2.0921,0,0,0,0,0,0,2.0387,2.0402,2.0529,2.0468,2.0482,2.0486,2.0524,2.0523,2.0545,2.0556,2.0556,2.0532,2.057,2.0582,2.0671,2.0732,2.0615,2.0621,2.0906,2.0913,2.0919,2.1009,0,0,0,0,0,0,2.0382,2.0401,2.0445,2.0469,2.0486,2.0607,2.0528,2.0527,2.0556,2.0548,2.0577,2.0579,2.0568,2.0662,2.0677,2.0738,2.0626,2.0901,2.0909,2.0917,2.1001,2.1018,2.1032,0,0,0,0,0,2.0376,2.0467,2.0447,2.0463,2.054,2.0611,2.0621,2.0606,2.0561,2.0605,2.0613,2.0578,2.0723,2.0671,2.0688,2.0752,2.0897,2.0907,2.0916,2.0993,2.1014,2.1032,0,0,0,0,0,0,2.045,2.047,2.0448,2.055,2.0579,2.06,2.0655,2.0628,2.0671,2.0662,2.0643,2.065,2.0745,2.0757,2.07,2.0867,2.0803,2.0816,2.0856,2.0875,2.0891,2.0886,2.0631,0,0,0,0,0,2.0478,2.0533,2.0548,2.0636,2.0652,2.0651,2.0681,2.0668,2.0698,2.071,2.0723,2.0754,2.0807,2.0842,2.089,2.1002,2.1009,2.1055,2.107,2.1083,2.1095,2.1158,2.1179,2.0953,2.0953,2.0953,0,0,2.0536,2.0554,2.059,2.0652,2.0673,2.0732,2.0662,2.0726,2.077,2.072,2.0805,2.0816,2.0849,2.0951,2.0996,2.0964,2.1159,2.1096,2.1106,2.1111,2.117,2.1191,2.121,2.0959,2.0958,2.0957,0,0,2.0674,2.0692,2.0769,2.0792,2.0825,2.0824,2.0843,2.0868,2.0874,2.0959,2.0923,2.0975,2.1066,2.1091,2.1116,2.1267,2.1237,2.1283,2.1366,2.1427,2.1445,2.146,2.1515,2.1535,2.1295,2.1295,2.1295,0,2.0742,2.0829,2.0812,2.088,2.0909,2.0866,2.0945,2.0968,2.1016,2.1037,2.1001,2.1115,2.1134,2.1242,2.1279,2.13,2.1322,2.1279,2.1443,2.1459,2.1473,2.1526,2.1546,2.1301,2.13,2.1299,2.1299,0,2.0913,2.0973,2.1031,2.1079,2.1115,2.1187,2.1183,2.1221,2.1206,2.1209,2.1298,2.132,2.1373,2.1398,2.1383,2.1505,2.1484,2.1446,2.1381,2.1501,2.155,2.1569,2.1308,2.1306,2.1305,2.1303,0,0,2.1097,2.1136,2.1157,2.1179,2.1214,2.1261,2.1333,2.1386,2.142,2.1455,2.1516,2.1594,2.156,2.1589,2.1577,2.163,2.175,2.1586,2.1586,2.1616,2.1888,2.1916,2.194,2.173,2.1734,2.1737,2.1885,0,2.1236,2.136,2.1348,2.1467,2.1524,2.1486,2.1549,2.1578,2.1584,2.1634,2.164,2.1697,2.1647,2.1664,2.1715,2.1724,2.1804,2.1714,2.1788,2.1791,2.1781,2.1965,2.1995,2.2134,2.1904,2.1907,2.191,0,2.1414,2.1456,2.1581,2.1609,2.1632,2.1689,2.1737,2.1785,2.1818,2.1819,2.1852,2.1832,2.1906,2.1839,2.1942,2.1881,2.1911,2.1921,2.1926,2.1932,2.1858,2.1978,2.2177,2.2199,2.1939,2.1937,2.1935,0,2.1537,2.1625,2.1711,2.1731,2.1766,2.1807,2.1824,2.1853,2.1886,2.1929,2.1951,2.2002,2.203,2.207,2.2065,2.2017,2.2171,2.2103,2.2174,2.2175,2.2208,2.2206,2.2416,2.2227,2.2226,2.2226,2.2226,0,2.1694,2.1772,2.1768,2.1821,2.1908,2.1894,2.1981,2.1993,2.202,2.2076,2.2046,2.2099,2.2088,2.2142,2.2138,2.2225,2.2238,2.2242,2.224,2.2245,2.2244,2.2264,2.2255,2.2232,2.223,2.2229,2.2228,0,2.1846,2.1846,2.1938,2.1964,2.1973,2.2036,2.2059,2.211,2.2114,2.2185,2.2201,2.2208,2.227,2.2269,2.2339,2.2337,2.2444,2.243,2.2433,2.243,2.2502,2.2496,2.2733,2.2764,2.2554,2.2556,2.2557,0,2.1946,2.2006,2.2039,2.2074,2.2093,2.215,2.2185,2.2175,2.2212,2.2255,2.2302,2.2361,2.2407,2.2508,2.252,2.2575,2.2563,2.2642,2.2571,2.2575,2.2566,2.2562,2.2569,2.2656,2.2659,2.2661,2.2662,0,2.2125,2.2122,2.2172,2.2224,2.2265,2.2305,2.2342,2.2372,2.2367,2.241,2.2473,2.251,2.2582,2.2642,2.2695,2.2713,2.2688,2.2685,2.2705,2.271,2.2709,2.2712,2.2472,2.2679,2.2678,2.2676,2.2675,2.2675,2.2254,2.2306,2.2338,2.2396,2.2422,2.2458,2.2508,2.2519,2.2571,2.2629,2.2621,2.2692,2.2726,2.2794,2.2817,2.2873,2.2845,2.2873,2.2881,2.2888,2.2897,2.2701,2.2883,2.2882,2.2882,2.2881,2.2881,0,2.2432,2.2451,2.2504,2.2557,2.2603,2.2575,2.2615,2.2656,2.2718,2.2752,2.2799,2.2873,2.2932,2.2949,2.3006,2.3048,2.3038,2.3063,2.306,2.3066,2.2918,2.2895,2.3071,2.3071,2.3071,2.3071,2.3071,2.3071,2.253,2.2616,2.2619,2.2719,2.2738,2.2807,2.2833,2.2866,2.2893,2.2977,2.3025,2.3036,2.3064,2.3124,2.3177,2.3181,2.3203,2.3234,2.3233,2.3095,2.3076,2.3057,2.3037,2.3239,2.3239,2.3376,2.3378,2.3379]},{"header":{"parameterUnit":"m.s-1","parameterCategory":1,"la1":30.2991,"la2":30.254,"lo1":-89.0895,"lo2":-89.0444,"dy":0.0017,"dx":0.0017,"nx":28,"ny":28,"refTime":"2025-11-14T03:00:00:Z","depth":0,"parameterNumber":3,"parameterNumberName":"V-component_of_WINDS"},"data":[0,0,0,0,0,0,0,0,0,0,0,0,0,0,0,0,0,0,0,0,0,0,0,0,0,0,0,0,0,0,0,0,0,0,0,0,0,0,0,0,0,0,0,0,0,0,0,0,0,0,0,0,0,0,0,0,0,0,-0.0423,-0.0424,0,-0.0461,-0.0461,-0.0462,-0.0493,-0.0493,-0.0494,-0.0494,-0.0533,-0.0534,-0.0534,0,0,0,0,0,0,0,0,0,0,0,0,0,-0.038,-0.0381,-0.0423,-0.0424,-0.0424,-0.0461,-0.0461,-0.0462,-0.0493,-0.0493,-0.0494,-0.0494,-0.0533,-0.0534,-0.0534,0,0,0,0,0,0,0,0,0,0,0,0,0,-0.0406,-0.0381,-0.0423,-0.0444,-0.0446,-0.046,-0.0461,-0.0462,-0.0493,-0.0493,-0.0494,-0.0494,-0.0532,-0.0534,-0.0535,-0.0531,0,0,-0.0538,-0.0538,0,0,0,0,0,0,0,0,-0.0405,-0.0408,-0.0441,-0.0443,-0.0445,-0.0473,-0.046,-0.0485,-0.0493,-0.0475,-0.0494,-0.0495,-0.0513,-0.0515,-0.0521,-0.0533,-0.0534,-0.0538,-0.0539,-0.0539,-0.0539,0,0,0,0,0,0,0,-0.0403,-0.0406,-0.0438,-0.0441,-0.0444,-0.0452,-0.0456,-0.0465,-0.0491,-0.0477,-0.0479,-0.0483,-0.0514,-0.052,-0.0522,-0.0535,-0.0538,-0.0539,-0.054,-0.054,-0.0546,-0.0546,0,0,0,0,0,0,-0.0398,-0.0405,-0.0437,-0.0439,-0.0426,-0.0452,-0.0457,-0.0463,-0.0491,-0.0495,-0.0483,-0.0485,-0.0518,-0.0521,-0.0524,-0.0522,-0.0539,-0.054,-0.0541,-0.0547,-0.0546,-0.0545,0,0,0,0,0,0,-0.0397,-0.04,-0.0435,-0.0423,-0.0428,-0.0453,-0.0459,-0.0464,-0.047,-0.0495,-0.05,-0.0484,-0.0519,-0.0522,-0.0529,-0.0523,-0.0541,-0.0542,-0.0547,-0.0546,-0.0546,-0.0517,0,0,0,0,0,0,-0.0395,-0.04,-0.0398,-0.0422,-0.0428,-0.0439,-0.0459,-0.0464,-0.0472,-0.0474,-0.0498,-0.0502,-0.0519,-0.0527,-0.053,-0.0525,-0.0542,-0.0548,-0.0547,-0.0546,-0.0518,-0.0515,-0.0512,0,0,0,0,0,-0.0393,-0.0389,-0.0398,-0.0402,-0.0427,-0.0439,-0.0442,-0.0462,-0.0471,-0.047,-0.0486,-0.0501,-0.0524,-0.0528,-0.0531,-0.0526,-0.0548,-0.0547,-0.0546,-0.052,-0.0516,-0.0512,0,0,0,0,0,0,-0.0363,-0.0392,-0.0403,-0.0405,-0.0419,-0.0444,-0.0444,-0.0457,-0.0469,-0.0471,-0.0496,-0.0501,-0.0505,-0.0516,-0.052,-0.0525,-0.0538,-0.0537,-0.0517,-0.0513,-0.051,-0.0507,-0.0543,0,0,0,0,0,-0.0357,-0.0364,-0.0389,-0.0389,-0.0395,-0.0418,-0.0424,-0.0438,-0.0454,-0.046,-0.0477,-0.0492,-0.0502,-0.0508,-0.0519,-0.052,-0.0526,-0.0519,-0.0516,-0.0513,-0.0513,-0.0514,-0.0512,-0.0542,-0.0542,-0.0542,0,0,-0.0344,-0.036,-0.0363,-0.0383,-0.0396,-0.0403,-0.0423,-0.043,-0.0435,-0.0461,-0.0468,-0.0481,-0.05,-0.0503,-0.0506,-0.0513,-0.0506,-0.0512,-0.051,-0.051,-0.0513,-0.051,-0.0508,-0.0541,-0.0541,-0.0541,0,0,-0.0323,-0.0337,-0.0338,-0.035,-0.0369,-0.0384,-0.0385,-0.0408,-0.0417,-0.0425,-0.0444,-0.0452,-0.0469,-0.0481,-0.049,-0.0475,-0.0489,-0.0478,-0.0462,-0.0464,-0.0461,-0.0459,-0.0454,-0.0452,-0.0477,-0.0477,-0.0477,0,-0.0305,-0.0316,-0.0337,-0.0343,-0.0351,-0.0375,-0.0377,-0.0388,-0.0409,-0.0415,-0.0422,-0.0445,-0.0459,-0.0466,-0.0463,-0.0469,-0.047,-0.0475,-0.046,-0.0458,-0.0457,-0.0452,-0.045,-0.0476,-0.0476,-0.0476,-0.0476,0,-0.0292,-0.03,-0.0299,-0.0319,-0.0327,-0.0331,-0.0353,-0.0359,-0.0372,-0.0387,-0.0395,-0.0412,-0.0427,-0.043,-0.0444,-0.044,-0.0444,-0.0455,-0.0469,-0.0452,-0.0448,-0.0446,-0.0473,-0.0474,-0.0474,-0.0475,0,0,-0.0253,-0.0285,-0.0284,-0.0294,-0.0317,-0.0323,-0.0328,-0.0343,-0.0348,-0.0362,-0.0367,-0.0381,-0.0393,-0.0402,-0.0417,-0.0419,-0.0406,-0.043,-0.0431,-0.0425,-0.0403,-0.0394,-0.0391,-0.0416,-0.0415,-0.0415,-0.0401,0,-0.0237,-0.0246,-0.0266,-0.027,-0.0277,-0.0301,-0.0305,-0.032,-0.0334,-0.0342,-0.0358,-0.0368,-0.0382,-0.0388,-0.039,-0.0407,-0.0402,-0.0408,-0.0421,-0.0421,-0.0415,-0.0389,-0.0379,-0.0365,-0.04,-0.04,-0.0399,0,-0.0218,-0.0231,-0.0235,-0.0258,-0.0262,-0.0266,-0.0281,-0.0289,-0.0306,-0.0316,-0.0327,-0.0344,-0.0351,-0.0364,-0.0374,-0.0378,-0.0385,-0.0394,-0.0394,-0.0395,-0.0409,-0.039,-0.0361,-0.0359,-0.0397,-0.0397,-0.0398,0,-0.0189,-0.0208,-0.0213,-0.022,-0.0247,-0.0249,-0.026,-0.0278,-0.0286,-0.0299,-0.0305,-0.0319,-0.0327,-0.0337,-0.0358,-0.0365,-0.0366,-0.038,-0.0374,-0.0374,-0.0373,-0.0373,-0.0345,-0.0378,-0.0378,-0.0378,-0.0378,0,-0.0168,-0.017,-0.02,-0.0203,-0.0206,-0.0229,-0.0232,-0.0245,-0.0261,-0.0267,-0.0288,-0.0294,-0.032,-0.0329,-0.0345,-0.0352,-0.0355,-0.0364,-0.0368,-0.0362,-0.036,-0.0366,-0.0367,-0.0377,-0.0377,-0.0377,-0.0377,0,-0.0136,-0.0157,-0.0164,-0.0188,-0.0195,-0.0196,-0.0217,-0.0221,-0.0237,-0.0245,-0.0248,-0.0272,-0.0284,-0.0305,-0.0323,-0.0334,-0.0337,-0.0344,-0.0331,-0.0333,-0.0326,-0.0327,-0.0301,-0.0299,-0.0332,-0.0332,-0.0332,0,-0.0122,-0.0124,-0.0149,-0.0154,-0.0165,-0.0174,-0.0182,-0.0205,-0.0212,-0.0232,-0.0234,-0.0247,-0.0259,-0.0277,-0.0296,-0.031,-0.0318,-0.0308,-0.032,-0.0314,-0.0318,-0.0318,-0.0318,-0.0305,-0.0305,-0.0304,-0.0304,0,-0.0093,-0.0103,-0.0114,-0.0128,-0.0137,-0.0149,-0.0163,-0.0166,-0.0192,-0.02,-0.0212,-0.0221,-0.0239,-0.0252,-0.0269,-0.0281,-0.0297,-0.03,-0.0299,-0.0293,-0.0285,-0.0289,-0.0323,-0.03,-0.0301,-0.0301,-0.0301,-0.0301,-0.007,-0.0073,-0.0091,-0.0102,-0.0114,-0.0127,-0.0132,-0.0148,-0.0158,-0.0175,-0.0188,-0.0199,-0.0217,-0.0241,-0.0252,-0.0262,-0.0269,-0.0268,-0.0268,-0.0267,-0.0265,-0.0284,-0.0265,-0.0265,-0.0265,-0.0265,-0.0265,0,-0.0043,-0.0055,-0.0065,-0.0084,-0.0092,-0.0106,-0.0122,-0.0129,-0.0138,-0.0154,-0.0165,-0.0179,-0.0192,-0.0213,-0.0227,-0.0231,-0.0239,-0.0234,-0.0234,-0.0237,-0.0257,-0.0256,-0.0228,-0.0228,-0.0228,-0.0228,-0.0228,-0.0228,-0.0029,-0.0035,-0.0047,-0.006,-0.0073,-0.0084,-0.0092,-0.0103,-0.0115,-0.013,-0.0141,-0.0154,-0.0172,-0.0188,-0.0201,-0.0207,-0.0211,-0.0204,-0.0212,-0.0232,-0.0235,-0.0238,-0.0238,-0.0205,-0.0205,-0.0191,-0.0191,-0.0191]}]]